Location: Roland
(31.1349°N, 85.4372°W)
Time: 17:10:25
(UTC+00:00)

Vanguard 2 Rocket - Pass Details

Date: 05 December 2021
Orbit: 554 x 3324 km, 32.9° (Epoch: 16 January)

Event Time Altitude Azimuth Distance (km) Brightness Sun altitude
Rises 22:57:45 0° 251° (WSW) 2,916 12.4 -4.5°
Reaches altitude 10° 22:59:41 10° 250° (WSW) 2,146 10.8 -4.8°
Maximum altitude 23:04:31 80° 164° (SSE) 928 7.0 -5.8°
Drops below altitude 10° 23:12:40 10° 78° (ENE) 3,518 9.2 -7.4°
Enters shadow 23:13:24 - 78° (ENE) 3,792 9.4 -7.5°
